Date String (YYYY-MM-DD hh:mm:ss) UTC,Instrument flags,absolute air pressure of the measurement (hPa),sample flow rate (lpm),inlet stack bypass flow (lpm),air temperature of the measurement (°C),ambient temperature measured by the external sensor (°C),aerosol sample conditioner tube jacket temperature (°C),OPC LED temperature (°C),internal box temperature (°C),relative humidity of the measurement (%),span deviation,mass concentration of particles derived from Lorenz-Mie calculation of OPC scattering (μg/m³),mass concentration of particles derived from Lorenz-Mie calculation of OPC scattering (μg/m³),mass concentration of particles derived from Lorenz-Mie calculation of OPC scattering (μg/m³)
DateTimeUTC,F1_M11,P_M11,Q1_M11,Q2_M11,T1_M11,T2_M11,T3_M11,T4_M11,T5_M11,U1_M11,ZSPAN_M11,X0_M11,X2_M11,X1_M11
2023-11-01 21:00:00,SystemResetWarning,0830.4,5.00,000.00,024.8,024.1,000.0,033.0,026.4,14.6,0000.0,0005.48,0002.43,0001.71
2023-11-01 21:01:00,SystemResetWarning,0830.6,5.00,000.00,024.8,024.2,000.0,033.0,026.4,14.2,0000.0,0005.41,0002.56,0001.80
2023-11-01 21:02:00,SystemResetWarning,0830.5,5.00,000.00,024.9,024.2,000.0,033.1,026.4,14.3,0000.0,0005.32,0002.66,0001.86
2023-11-01 21:03:00,SystemResetWarning,0830.5,5.00,000.00,024.9,024.2,000.0,033.1,026.4,13.8,0000.0,0005.23,0002.70,0001.87
2023-11-01 21:04:00,SystemResetWarning,0830.5,5.00,000.00,024.9,024.2,000.0,033.1,026.5,14.2,0000.0,0005.04,0002.65,0001.85
2023-11-01 21:05:00,SystemResetWarning,0830.5,5.00,000.00,024.9,024.2,000.0,033.1,026.5,14.9,0000.0,0005.33,0002.60,0001.83
2023-11-01 21:06:00,SystemResetWarning,0830.8,5.00,000.00,024.9,024.3,000.0,033.1,026.5,15.0,0000.0,0005.62,0002.58,0001.83
2023-11-01 21:07:00,SystemResetWarning,0830.6,4.99,000.00,025.0,024.3,000.0,033.2,026.5,15.1,0000.0,0005.65,0002.57,0001.84
2023-11-01 21:08:00,SystemResetWarning,0830.7,5.00,000.00,025.0,024.3,000.0,033.2,026.6,14.6,0000.0,0005.81,0002.68,0001.88
2023-11-01 21:09:00,SystemResetWarning,0830.6,5.00,000.00,025.0,024.3,000.0,033.2,026.6,14.3,0000.0,0005.53,0002.71,0001.96
2023-11-01 21:10:00,SystemResetWarning,0830.5,5.00,000.00,025.0,024.3,000.0,033.2,026.6,14.4,0000.0,0005.66,0002.80,0002.07
2023-11-01 21:11:00,SystemResetWarning,0830.5,5.00,000.00,025.0,024.4,000.0,033.2,026.6,14.5,0000.0,0006.03,0002.96,0002.20
2023-11-01 21:12:00,SystemResetWarning,0830.5,5.01,000.00,025.1,024.4,000.0,033.2,026.6,13.9,0000.0,0006.45,0003.11,0002.34
2023-11-01 21:13:00,SystemResetWarning,0830.4,5.00,000.00,025.1,024.4,000.0,033.3,026.7,13.6,0000.0,0007.72,0003.32,0002.60
2023-11-01 21:14:00,SystemResetWarning,0830.8,5.00,000.00,025.1,024.5,000.0,033.3,026.7,14.8,0000.0,0008.46,0003.54,0002.94
2023-11-01 21:15:00,SystemResetWarning,0830.6,4.99,000.00,025.1,024.5,000.0,033.3,026.7,15.0,0000.0,0009.04,0003.78,0003.20
2023-11-01 21:16:00,SystemResetWarning,0830.5,5.00,000.00,025.2,024.5,000.0,033.3,026.8,14.6,0000.0,0009.07,0003.96,0003.34
2023-11-01 21:17:00,SystemResetWarning,0830.5,5.01,000.00,025.2,024.6,000.0,033.4,026.8,15.0,0000.0,0009.43,0004.17,0003.50
2023-11-01 21:18:00,SystemResetWarning,0830.5,5.01,000.00,025.2,024.6,000.0,033.4,026.8,14.9,0000.0,0009.77,0004.41,0003.68
2023-11-01 21:19:00,SystemResetWarning,0830.4,5.00,000.00,025.3,024.6,000.0,033.4,026.8,13.8,0000.0,0009.94,0004.58,0003.85
2023-11-01 21:20:00,SystemResetWarning,0830.4,4.98,000.00,025.3,024.6,000.0,033.4,026.8,13.9,0000.0,0010.36,0004.80,0004.00
2023-11-01 21:21:00,SystemResetWarning,0830.4,5.00,000.00,025.3,024.7,000.0,033.4,026.9,13.5,0000.6,0010.50,0004.96,0004.14
2023-11-01 21:22:00,SystemResetWarning,0830.4,5.00,000.00,025.3,024.7,000.0,033.5,026.9,12.1,0003.5,0010.69,0005.11,0004.28
2023-11-01 21:23:00,SystemResetWarning,0830.4,5.00,000.00,025.3,024.7,000.0,033.5,026.9,12.9,0003.7,0010.95,0005.26,0004.39
2023-11-01 21:24:00,SystemResetWarning,0830.4,5.01,000.00,025.4,024.7,000.0,033.5,026.9,12.6,0004.1,0010.95,0005.34,0004.47
2023-11-01 21:25:00,SystemResetWarning,0830.4,5.00,000.00,025.4,024.8,000.0,033.5,027.0,14.3,0004.1,0011.35,0005.36,0004.49
2023-11-01 21:26:00,SystemResetWarning,0830.4,4.99,000.00,025.4,024.8,000.0,033.6,027.0,15.7,0004.3,0012.23,0005.42,0004.50
2023-11-01 21:27:00,SystemResetWarning,0830.3,4.99,000.00,025.5,024.8,000.0,033.6,027.0,15.2,0004.2,0013.24,0005.53,0004.58
2023-11-01 21:28:00,SystemResetWarning,0830.3,5.00,000.00,025.5,024.8,000.0,033.6,027.0,15.7,0003.8,0013.30,0005.64,0004.68
2023-11-01 21:29:00,SystemResetWarning,0830.3,5.00,000.00,025.5,024.8,000.0,033.6,027.0,15.6,0003.0,0013.21,0005.64,0004.73
2023-11-01 21:30:00,SystemResetWarning,0830.3,5.00,000.00,025.5,024.8,000.0,033.6,027.0,15.4,0001.4,0013.25,0005.66,0004.75
2023-11-01 21:31:00,SystemResetWarning,0830.3,5.00,000.00,025.5,024.8,000.0,033.7,027.0,14.3,0000.0,0013.39,0005.59,0004.69
2023-11-01 21:32:00,SystemResetWarning,0830.3,5.00,000.00,025.5,024.8,000.0,033.7,027.0,13.2,0000.0,0013.34,0005.51,0004.62
2023-11-01 21:33:00,SystemResetWarning,0830.3,5.00,000.00,025.5,024.8,000.0,033.7,027.0,14.1,0000.0,0013.27,0005.48,0004.59
2023-11-01 21:34:00,SystemResetWarning,0830.3,5.00,000.00,025.5,024.9,000.0,033.7,027.0,14.2,0000.0,0013.18,0005.41,0004.57
2023-11-01 21:35:00,SystemResetWarning,0830.3,5.00,000.00,025.6,024.9,000.0,033.7,027.1,14.9,0000.0,0012.63,0005.34,0004.53
2023-11-01 21:36:00,SystemResetWarning,0830.3,4.98,000.00,025.6,024.9,000.0,033.8,027.1,15.5,0000.0,0012.23,0005.27,0004.49
2023-11-01 21:37:00,SystemResetWarning,0830.3,4.99,000.00,025.6,024.9,000.0,033.8,027.1,15.5,0000.0,0011.54,0005.21,0004.45
2023-11-01 21:38:00,SystemResetWarning,0830.3,5.00,000.00,025.6,024.9,000.0,033.8,027.1,15.5,0000.0,0010.10,0005.08,0004.39
2023-11-01 21:39:00,SystemResetWarning,0830.3,5.01,000.00,025.6,024.9,000.0,033.8,027.1,15.3,0000.0,0009.68,0004.96,0004.28
2023-11-01 21:40:00,SystemResetWarning,0830.4,5.00,000.00,025.6,024.9,000.0,033.8,027.1,15.1,0000.0,0009.54,0004.87,0004.19
2023-11-01 21:41:00,SystemResetWarning,0830.3,5.00,000.00,025.7,024.9,000.0,033.8,027.1,15.3,0002.7,0009.56,0004.85,0004.16
2023-11-01 21:42:00,SystemResetWarning,0830.4,5.00,000.00,025.7,024.9,000.0,033.9,027.1,15.6,0001.4,0009.53,0004.89,0004.21
2023-11-01 21:43:00,SystemResetWarning,0830.4,5.00,000.00,025.7,025.0,000.0,033.9,027.1,15.7,0002.6,0009.39,0005.00,0004.31
2023-11-01 21:44:00,SystemResetWarning,0830.4,4.99,000.00,025.7,024.9,000.0,033.9,027.1,15.2,0000.5,0009.45,0005.01,0004.34
2023-11-01 21:45:00,SystemResetWarning,0830.5,5.00,000.00,025.7,025.0,000.0,033.9,027.1,15.5,0000.3,0009.49,0005.05,0004.35
2023-11-01 21:46:00,SystemResetWarning,0830.5,5.00,000.00,025.7,025.0,000.0,033.9,027.2,15.7,0002.4,0009.61,0005.12,0004.38
2023-11-01 21:47:00,SystemResetWarning,0830.4,5.00,000.00,025.7,025.0,000.0,033.9,027.2,15.9,0003.5,0009.45,0005.12,0004.38
2023-11-01 21:48:00,SystemResetWarning,0830.5,5.00,000.00,025.7,025.0,000.0,033.9,027.2,15.8,0003.8,0009.04,0005.09,0004.35
2023-11-01 21:49:00,SystemResetWarning,0830.4,5.00,000.00,025.8,025.0,000.0,034.0,027.2,15.5,0003.5,0009.35,0005.10,0004.32
2023-11-01 21:50:00,SystemResetWarning,0830.4,4.99,000.00,025.8,025.0,000.0,034.0,027.2,15.6,0003.6,0009.67,0005.17,0004.39
2023-11-01 21:51:00,SystemResetWarning,0830.7,4.99,000.00,025.8,025.0,000.0,034.0,027.2,15.5,0001.5,0010.03,0005.21,0004.45
2023-11-01 21:52:00,SystemResetWarning,0830.6,5.01,000.00,025.8,025.0,000.0,034.0,027.2,15.5,0000.4,0009.98,0005.19,0004.45
2023-11-01 21:53:00,SystemResetWarning,0830.4,5.00,000.00,025.8,025.1,000.0,034.0,027.2,15.4,0002.5,0010.10,0005.13,0004.42
2023-11-01 21:54:00,SystemResetWarning,0830.5,5.00,000.00,025.8,025.1,000.0,034.0,027.2,14.9,0002.9,0010.22,0005.10,0004.40
2023-11-01 21:55:00,SystemResetWarning,0830.4,5.00,000.00,025.8,025.1,000.0,034.0,027.3,14.5,0002.4,0010.18,0005.08,0004.38
2023-11-01 21:56:00,SystemResetWarning,0830.5,5.00,000.00,025.8,025.1,000.0,034.1,027.3,14.2,0001.8,0010.11,0005.01,0004.33
2023-11-01 21:57:00,SystemResetWarning,0830.7,4.99,000.00,025.8,025.1,000.0,034.1,027.3,14.2,0000.6,0009.94,0004.93,0004.31
2023-11-01 21:58:00,SystemResetWarning,0830.4,5.01,000.00,025.9,025.1,000.0,034.1,027.3,14.3,0000.0,0009.85,0004.79,0004.19
2023-11-01 21:59:00,SystemResetWarning,0830.5,4.99,000.00,025.9,025.1,000.0,034.1,027.3,14.2,0000.0,0009.73,0004.72,0004.12
